N6GIW Weather Reports


Display with metric or nautical units.
time (UTC)temp
F
wind
direction
speed
MPH
gust
MPH
rain 1hr
in
rain 24hr
in
rain mn
in
humidity
%
barometer
mb
20260504004003 75 212 13.0 20.0 0.00 0.00 0.00 19 1014.9
20260504003503 75 222 13.0 20.0 0.00 0.00 0.00 19 1014.8
20260504002003 75 193 17.0 32.0 0.00 0.00 0.00 21 1014.7
20260504001503 75 212 10.0 25.0 0.00 0.00 0.00 22 1014.7
20260504000003 76 202 18.0 31.0 0.00 0.00 0.00 24 1014.8
20260503235003 76 206 19.0 29.0 0.00 0.00 0.00 25 1015.0
20260503234503 77 219 18.0 29.0 0.00 0.00 0.00 24 1014.9
20260503234003 77 213 18.0 24.0 0.00 0.00 0.00 25 1014.9
20260503233502 77 210 20.0 28.0 0.00 0.00 0.00 25 1014.9
20260503233004 77 209 16.0 26.0 0.00 0.00 0.00 25 1015.1
20260503232504 78 214 16.0 24.0 0.00 0.00 0.00 25 1015.3
20260503232003 78 232 13.0 26.0 0.00 0.00 0.00 25 1015.6
20260503231503 78 228 16.0 25.0 0.00 0.00 0.00 25 1015.6
20260503231003 78 205 14.0 26.0 0.00 0.00 0.00 25 1015.9
20260503230503 78 201 17.0 23.0 0.00 0.00 0.00 25 1015.9
20260503230003 78 213 15.0 22.0 0.00 0.00 0.00 25 1016.0
20260503225504 78 206 13.0 20.0 0.00 0.00 0.00 25 1016.1
20260503224503 79 196 13.0 20.0 0.00 0.00 0.00 25 1016.1
20260503224003 79 214 12.0 20.0 0.00 0.00 0.00 24 1016.1
20260503223504 79 221 10.0 20.0 0.00 0.00 0.00 24 1016.3
20260503223003 80 193 13.0 21.0 0.00 0.00 0.00 24 1016.2
20260503222503 79 198 12.0 18.0 0.00 0.00 0.00 24 1016.3
20260503222003 80 221 11.0 23.0 0.00 0.00 0.00 24 1016.3
20260503221503 80 215 11.0 20.0 0.00 0.00 0.00 24 1016.3
20260503221003 80 187 11.0 18.0 0.00 0.00 0.00 24 1016.3
20260503220503 79 220 14.0 21.0 0.00 0.00 0.00 24 1016.3
20260503220003 79 211 14.0 26.0 0.00 0.00 0.00 24 1016.4
20260503215004 80 197 13.0 20.0 0.00 0.00 0.00 24 1016.4
20260503214503 80 213 12.0 22.0 0.00 0.00 0.00 23 1016.3
20260503214003 80 220 13.0 20.0 0.00 0.00 0.00 23 1016.5
20260503213503 80 220 15.0 22.0 0.00 0.00 0.00 22 1016.5
20260503213003 80 204 13.0 20.0 0.00 0.00 0.00 22 1016.6
20260503212503 81 213 12.0 20.0 0.00 0.00 0.00 22 1016.7
20260503212003 81 216 12.0 26.0 0.00 0.00 0.00 22 1016.9
20260503211003 81 190 12.0 20.0 0.00 0.00 0.00 21 1016.9
20260503210503 80 189 11.0 17.0 0.00 0.00 0.00 21 1017.0
20260503210003 80 189 11.0 21.0 0.00 0.00 0.00 21 1017.1
20260503205503 81 173 11.0 21.0 0.00 0.00 0.00 21 1017.1
20260503205004 80 150 13.0 20.0 0.00 0.00 0.00 21 1017.1
20260503204503 81 189 11.0 15.0 0.00 0.00 0.00 21 1017.3
20260503204003 81 214 10.0 20.0 0.00 0.00 0.00 21 1017.3
20260503203504 80 163 14.0 20.0 0.00 0.00 0.00 21 1017.4
20260503203004 80 155 13.0 21.0 0.00 0.00 0.00 20 1017.5
20260503202503 81 179 12.0 20.0 0.00 0.00 0.00 20 1017.5
20260503201504 80 164 12.0 24.0 0.00 0.00 0.00 20 1017.6
20260503200503 80 163 14.0 21.0 0.00 0.00 0.00 20 1017.7
20260503195003 80 187 15.0 25.0 0.00 0.00 0.00 20 1017.8
20260503194503 80 183 13.0 20.0 0.00 0.00 0.00 19 1017.9
20260503194005 80 197 14.0 22.0 0.00 0.00 0.00 19 1017.9
20260503193004 80 187 10.0 22.0 0.00 0.00 0.00 20 1017.9
20260503192503 79 187 10.0 23.0 0.00 0.00 0.00 20 1018.2
20260503192003 80 186 13.0 22.0 0.00 0.00 0.00 20 1018.2
20260503191503 80 182 14.0 22.0 0.00 0.00 0.00 19 1018.3
20260503191003 80 178 13.0 21.0 0.00 0.00 0.00 19 1018.2
20260503190503 80 178 13.0 21.0 0.00 0.00 0.00 19 1018.3
20260503190003 80 207 14.0 21.0 0.00 0.00 0.00 19 1018.3
20260503185004 80 193 12.0 18.0 0.00 0.00 0.00 18 1018.4
20260503184503 79 188 13.0 18.0 0.00 0.00 0.00 19 1018.4
20260503184003 79 201 12.0 18.0 0.00 0.00 0.00 19 1018.5
20260503183503 79 197 14.0 23.0 0.00 0.00 0.00 18 1018.5
20260503182004 79 181 7.0 23.0 0.00 0.00 0.00 18 1018.6
20260503181504 79 199 12.0 20.0 0.00 0.00 0.00 18 1018.5
20260503181004 79 200 11.0 16.0 0.00 0.00 0.00 18 1018.6
20260503180504 79 189 13.0 20.0 0.00 0.00 0.00 18 1018.7
20260503180003 79 206 13.0 20.0 0.00 0.00 0.00 18 1018.7
20260503175503 79 175 9.0 23.0 0.00 0.00 0.00 18 1018.6
20260503175003 80 195 9.0 17.0 0.00 0.00 0.00 17 1018.7
20260503174003 79 208 12.0 23.0 0.00 0.00 0.00 17 1018.6
20260503173503 79 185 13.0 20.0 0.00 0.00 0.00 18 1018.7
20260503172504 79 190 10.0 23.0 0.00 0.00 0.00 17 1018.8
20260503172003 79 206 9.0 17.0 0.00 0.00 0.00 17 1018.8
20260503171504 79 198 12.0 17.0 0.00 0.00 0.00 17 1018.7
20260503171003 79 182 12.0 18.0 0.00 0.00 0.00 17 1018.6
20260503170503 78 177 10.0 20.0 0.00 0.00 0.00 17 1018.7
20260503151004 74 198 0.0 1.0 0.00 0.00 0.00 23 1019.3
20260503150504 73 198 0.0 0.0 0.00 0.00 0.00 23 1019.2
20260503131004 61 221 0.0 0.0 0.00 0.00 0.00 30 1018.4
20260503130504 61 221 0.0 3.0 0.00 0.00 0.00 30 1018.4
20260503110503 65 243 0.0 0.0 0.00 0.00 0.00 25 1017.7
20260503090504 66 220 0.0 1.0 0.00 0.00 0.00 25 1019.0
20260503081503 68 230 0.0 0.0 0.00 0.00 0.00 24 1019.4
20260503081005 68 223 0.0 0.0 0.00 0.00 0.00 24 1019.6
20260503080504 69 223 0.0 0.0 0.00 0.00 0.00 24 1019.6
20260503072504 72 210 0.0 0.0 0.00 0.00 0.00 21 1019.8
20260503072004 72 210 0.0 0.0 0.00 0.00 0.00 21 1019.8
20260503071505 72 213 0.0 0.0 0.00 0.00 0.00 21 1019.6
20260503071004 71 203 0.0 0.0 0.00 0.00 0.00 22 1019.9
20260503070504 71 205 0.0 0.0 0.00 0.00 0.00 21 1019.9
20260503055003 65 190 0.0 0.0 0.00 0.00 0.00 34 1020.0
20260503054504 65 190 0.0 0.0 0.00 0.00 0.00 34 1020.0
20260503054003 65 190 0.0 0.0 0.00 0.00 0.00 35 1020.1
20260503053504 66 190 0.0 0.0 0.00 0.00 0.00 35 1020.1
20260503053003 66 190 0.0 0.0 0.00 0.00 0.00 35 1020.1
20260503052504 66 190 0.0 0.0 0.00 0.00 0.00 36 1020.1
20260503052003 66 190 0.0 0.0 0.00 0.00 0.00 35 1020.2
20260503051504 66 190 0.0 0.0 0.00 0.00 0.00 37 1020.2
20260503051004 67 190 0.0 0.0 0.00 0.00 0.00 38 1020.1
20260503050504 68 190 0.0 0.0 0.00 0.00 0.00 38 1020.1
20260503045503 69 191 0.0 0.0 0.00 0.00 0.00 37 1020.0
20260503045004 69 193 0.0 0.0 0.00 0.00 0.00 37 1019.9
20260503044503 69 193 0.0 0.0 0.00 0.00 0.00 38 1019.8
20260503044004 69 190 0.0 0.0 0.00 0.00 0.00 40 1019.9
20260503043004 69 176 0.0 0.0 0.00 0.00 0.00 41 1019.9
20260503042503 70 175 0.0 0.0 0.00 0.00 0.00 41 1019.7
20260503042004 70 175 0.0 0.0 0.00 0.00 0.00 41 1019.6
20260503041504 70 178 0.0 0.0 0.00 0.00 0.00 41 1019.7
20260503040504 71 180 0.0 0.0 0.00 0.00 0.00 41 1019.6
20260503040003 71 187 0.0 0.0 0.00 0.00 0.00 41 1019.6
20260503034503 72 188 0.0 0.0 0.00 0.00 0.00 39 1019.5
20260503033505 73 199 0.0 0.0 0.00 0.00 0.00 38 1019.4
20260503033004 73 200 0.0 0.0 0.00 0.00 0.00 37 1019.4
20260503032503 74 195 0.0 0.0 0.00 0.00 0.00 37 1019.4
20260503032004 74 196 0.0 0.0 0.00 0.00 0.00 36 1019.3
20260503031003 74 204 0.0 0.0 0.00 0.00 0.00 35 1019.2
20260503030504 75 203 0.0 0.0 0.00 0.00 0.00 34 1019.2
20260503025503 75 205 0.0 0.0 0.00 0.00 0.00 32 1019.0
20260503025004 75 194 0.0 0.0 0.00 0.00 0.00 31 1019.0
20260503024003 76 206 0.0 0.0 0.00 0.00 0.00 29 1018.9
20260503023503 76 204 0.0 0.0 0.00 0.00 0.00 27 1019.0
20260503022503 77 192 0.0 0.0 0.00 0.00 0.00 15 1018.8
20260503021504 78 185 1.0 12.0 0.00 0.00 0.00 14 1018.8
20260503020503 79 183 10.0 15.0 0.00 0.00 0.00 14 1018.9
20260503020004 79 186 10.0 16.0 0.00 0.00 0.00 14 1018.9
20260503015503 79 199 8.0 14.0 0.00 0.00 0.00 14 1018.9
20260503015004 80 185 10.0 14.0 0.00 0.00 0.00 14 1018.9
20260503014505 80 194 7.0 15.0 0.00 0.00 0.00 14 1018.8
20260503014004 80 200 9.0 13.0 0.00 0.00 0.00 14 1018.8
20260503013504 80 200 10.0 14.0 0.00 0.00 0.00 14 1018.8
20260503013004 81 183 9.0 16.0 0.00 0.00 0.00 14 1018.9
20260503012503 81 196 7.0 16.0 0.00 0.00 0.00 13 1018.8
20260503012003 81 198 9.0 16.0 0.00 0.00 0.00 13 1018.8
20260503011504 81 177 9.0 17.0 0.00 0.00 0.00 13 1018.8
20260503011004 82 173 9.0 14.0 0.00 0.00 0.00 13 1018.8
20260503010504 82 160 10.0 17.0 0.00 0.00 0.00 13 1018.8
20260503010004 82 168 9.0 20.0 0.00 0.00 0.00 13 1018.8
20260503005504 82 184 7.0 17.0 0.00 0.00 0.00 13 1018.7
20260503005003 82 165 5.0 15.0 0.00 0.00 0.00 13 1019.1